Location: Bosmont
(49.7318°N, 3.8587°E)
Time: 10:55:30
(UTC+00:00)

FO-29 - Pass Details

Date: 08 December 2023
Orbit: 799 x 1322 km, 98.6° (Epoch: 29 February)

Event Time Altitude Azimuth Distance (km) Brightness Sun altitude
Rises 04:35:10 0° 10° (N) 4,149 12.9 -26.8°
Reaches altitude 10° 04:38:07 10° 360° (N) 3,239 12.2 -26.3°
Enters shadow 04:41:59 25° 333° (NNW) 2,361 11.2 -25.7°
